This demonstration page uses our WeatherBlox Daily Observations layout. Learn more.

Left ArrowRight Arrow

36.17497, -115.13722

Hourly Observations for September 24, 2017

Temp ( °F °C ) Dew Point ( °F °C ) Humidity (%) Winds ( mph kmh ) Pressure ( in mb ) Visibility ( mi km ) Precip ( " mm )
12:53 am 00:53 Clear 59 15 31 -0.6 35 35 NNE 3 6 29.95 1014 10 16 0.00 0.00
1:53 am 01:53 Clear 58 14.4 32 0 38 38 W 3 6 29.96 1015 10 16 0.00 0.00
2:53 am 02:53 Clear 57 13.9 31 -0.6 37 37 N 8 13 29.96 1015 10 16 0.00 0.00
3:53 am 03:53 Clear 57 13.9 31 -0.6 37 37 NE 7 11 29.96 1014 10 16 0.00 0.00
4:53 am 04:53 Clear 57 13.9 30 -1.1 36 36 N 6 9 29.96 1015 10 16 0.00 0.00
5:53 am 05:53 Clear 54 12.2 30 -1.1 40 40 VRB 3 6 29.98 1015 10 16 0.00 0.00
6:53 am 06:53 Sunny 55 12.8 30 -1.1 38 38 VRB 5 7 30.00 1016 10 16 0.00 0.00
7:53 am 07:53 Sunny 57 13.9 29 -1.7 34 34 N 7 11 30.01 1016 10 16 0.00 0.00
8:53 am 08:53 Sunny 62 16.7 29 -1.7 29 29 N 13 20 30.01 1016 10 16 0.00 0.00
9:53 am 09:53 Sunny 66 18.9 26 -3.3 22 22 N 15 24 30.01 1016 10 16 0.00 0.00
10:53 am 10:53 Sunny 68 20 25 -3.9 20 20 N 13 20 30.01 1016 10 16 0.00 0.00
11:53 am 11:53 Sunny 69 20.6 23 -5 17 17 E 6 9 30.00 1016 10 16 0.00 0.00
12:53 pm 12:53 Sunny 69 20.6 24 -4.4 18 18 ESE 5 7 29.98 1015 10 16 0.00 0.00
1:53 pm 13:53 Sunny 70 21.1 22 -5.6 16 16 S 5 7 29.97 1015 10 16 0.00 0.00
2:53 pm 14:53 Sunny 72 22.2 21 -6.1 15 15 E 10 17 29.95 1014 10 16 0.00 0.00
3:53 pm 15:53 Sunny 73 22.8 21 -6.1 14 14 SSE 7 11 29.93 1014 10 16 0.00 0.00
4:53 pm 16:53 Sunny 73 22.8 21 -6.1 14 14 VRB 3 6 29.94 1014 10 16 0.00 0.00
5:53 pm 17:53 Sunny 73 22.8 21 -6.1 14 14 SE 7 11 29.94 1014 10 16 0.00 0.00
6:53 pm 18:53 Clear 71 21.7 21 -6.1 15 15 SE 5 7 29.95 1014 10 16 0.00 0.00
7:53 pm 19:53 Clear 69 20.6 22 -5.6 17 17 Calm 29.96 1015 10 16 0.00 0.00
8:53 pm 20:53 Clear 68 20 23 -5 18 18 Calm 29.96 1015 10 16 0.00 0.00
9:53 pm 21:53 Clear 65 18.3 26 -3.3 23 23 NW 5 7 29.97 1015 10 16 0.00 0.00
10:53 pm 22:53 Clear 63 17.2 23 -5 22 22 N 7 11 29.98 1015 10 16 0.00 0.00
11:53 pm 23:53 Clear 62 16.7 21 -6.1 21 21 NNW 9 15 29.98 1015 10 16 0.00 0.00

Powered by AerisWeather